George, South Africa

6:08 PM SAST on August 19, 2017 (GMT +0200)
George

Weather History for FAGG - November, 2012

Change the Weather History Date:

Monday, November 19, 2012

  Actual Average Record
Temperature  
Mean Temperature 62 °F -  
Max Temperature 71 °F 71 °F 83 °F (2015)
Min Temperature 53 °F 56 °F 50 °F (1997)
Degree Days  
Heating Degree Days 3    
Growing Degree Days 12 (Base 50)    
Moisture  
Dew Point 54 °F    
Average Humidity 71    
Maximum Humidity 88    
Minimum Humidity 57    
Precipitation  
Precipitation 0.00 in - - ()
Sea Level Pressure  
Sea Level Pressure 29.96 in    
Wind  
Wind Speed 5 mph ()    
Max Wind Speed 13 mph    
Max Gust Speed -    
Visibility 7.9 miles    
Events      
Averages and records for this station are not official NWS values.
T = Trace of Precipitation, MM = Missing Value Source: Averaged Metar Reports

Daily Weather History Graph

Daily Weather History Graph

Search for Another Location

Airport or City:

Trip Planner

Search our weather history database for the weather conditions in past years. The results will help you decide how hot, cold, wet, or windy it might be!

Date:

Astronomy

Nov. 19, 2012 Rise Set
Actual Time 5:16 AM SAST 7:16 PM SAST
Civil Twilight 4:48 AM SAST 7:44 PM SAST
Nautical Twilight 4:14 AM SAST 8:18 PM SAST
Astronomical Twilight 3:38 AM SAST 8:54 PM SAST
Moon 10:54 AM SAST No Moon Set
Length of Visible Light 14h 55m
Length of Day
14h 00m
Waxing Crescent, 37% of the Moon is Illuminated
Nov 19
Waxing Crescent
Nov 20
First Quarter
Nov 28
Full
Dec 6
Last Quarter
Dec 13
New

Hourly Weather History & Observations

Time (SAST) Temp. Dew Point Humidity Pressure Visibility Wind Dir Wind Speed Gust Speed Precip Events Conditions
12:00 AM 59.0 °F 46.4 °F 63% 29.98 in - West 4.6 mph - N/A   Clear
1:00 AM 59.0 °F 48.2 °F 67% 29.98 in - WSW 5.8 mph - N/A   Clear
2:00 AM 57 °F 51 °F 74% 29.97 in 6 mi SW 5.8 mph - -  
2:00 AM 55.4 °F 50.0 °F 82% 29.95 in - WNW 5.8 mph - N/A   Clear
3:00 AM 55.4 °F 48.2 °F 77% 29.95 in - North 3.5 mph - N/A   Clear
4:00 AM 57.2 °F 46.4 °F 67% 29.95 in - WNW 4.6 mph - N/A   Clear
5:00 AM 53 °F 47 °F 73% 29.97 in 12 mi West 5.8 mph - -  
5:00 AM 53.6 °F 46.4 °F 77% 29.95 in - West 5.8 mph - N/A   Clear
6:00 AM 55.4 °F 48.2 °F 77% 29.98 in 6.2 mi NNW 3.5 mph - N/A   Partly Cloudy
7:00 AM 59.0 °F 51.8 °F 77% 29.98 in 6.2 mi West 6.9 mph - N/A   Partly Cloudy
8:00 AM 63 °F 57 °F 75% 30.01 in 12 mi West 6.9 mph - -   Scattered Clouds
8:00 AM 62.6 °F 57.2 °F 82% 30.01 in 6.2 mi West 6.9 mph - N/A   Partly Cloudy
9:00 AM 66.2 °F 55.4 °F 68% 30.01 in 6.2 mi SW 9.2 mph - N/A   Partly Cloudy
10:00 AM 68.0 °F 57.2 °F 68% 29.98 in 6.2 mi South 5.8 mph - N/A   Partly Cloudy
11:00 AM 70 °F 58 °F 57% 29.98 in 12 mi SSE 3.5 mph - -   Scattered Clouds
11:00 AM 69.8 °F 57.2 °F 64% 29.98 in 6.2 mi Variable 4.6 mph - N/A   Partly Cloudy
12:00 PM 69.8 °F 59.0 °F 68% 29.95 in 6.2 mi South 12.7 mph - N/A   Partly Cloudy
1:00 PM 69.8 °F 57.2 °F 64% 29.95 in 6.2 mi South 6.9 mph - N/A   Partly Cloudy
2:00 PM 70 °F 59 °F 59% 29.94 in 12 mi SSE 9.2 mph - -   Scattered Clouds
2:00 PM 69.8 °F 59.0 °F 68% 29.95 in 6.2 mi South 6.9 mph - N/A   Partly Cloudy
3:00 PM 71.6 °F 59.0 °F 64% 29.92 in - SSE 5.8 mph - N/A   Clear
4:00 PM 69.8 °F 57.2 °F 64% 29.92 in - SSE 9.2 mph - N/A   Clear
5:00 PM 67 °F 57 °F 63% 29.94 in 12 mi SSE 8.1 mph - -   Scattered Clouds
5:00 PM 68.0 °F 57.2 °F 68% 29.95 in 6.2 mi South 6.9 mph - N/A   Partly Cloudy
6:00 PM 68.0 °F 55.4 °F 64% 29.95 in - Variable 2.3 mph - N/A   Clear
7:00 PM 66.2 °F 55.4 °F 68% 29.95 in 6.2 mi SW 4.6 mph - N/A   Partly Cloudy
8:00 PM 62 °F 58 °F 81% 29.97 in 12 mi SW 4.6 mph - -   Scattered Clouds
8:00 PM 62.6 °F 57.2 °F 82% 29.98 in 6.2 mi SW 4.6 mph - N/A   Partly Cloudy
9:00 PM 62.6 °F 57.2 °F 82% 29.98 in 6.2 mi West 2.3 mph - N/A   Partly Cloudy
10:00 PM 59.0 °F 55.4 °F 88% 29.98 in - NNE 4.6 mph - N/A   Clear
11:00 PM 59.0 °F 53.6 °F 82% 29.95 in - NNE 3.5 mph - N/A   Clear